SCP
7 6 6 6 6 5 4 4 4 4 4 3 3 3 4 3 2 2 2 3 3 3 3 2 2 2 2 1 1 1 1 1 1 1 1 1 1 1 1 1 1 1 1
7 7 6 7 6 6 5 5 5 5 4 4 3 4 4 4 3 3 3 3 3 3 2 2 2 2 2 2 1 1 1 1 1 1 1 1 1 1 1 1 1 1 1
7 7 7 7 7 6 5 5 5 5 5 4 4 4 4 3 3 3 4 4 3 3 2 2 2 2 2 2 1 1 1 1 1 1 1 1 1 1 1 1 1 1 1
6 7 8 9 9 7 6 6 6 5 4 4 4 4 3 3 3 3 4 4 4 3 2 2 2 2 2 2 2 2 1 1 1 1 1 1 1 1 1 1 1 1 1
5 6 9 11 10 8 7 6 5 4 3 3 3 3 2 2 2 2 3 3 3 3 2 2 2 2 2 2 2 2 2 2 1 1 1 1 1 1 1 1 1 1 1
3 4 7 9 8 7 6 5 4 3 2 2 2 2 2 2 2 2 2 2 2 2 2 2 2 2 2 2 2 2 2 2 1 1 1 1 1 1 1 1 1 1 1
3 3 5 6 5 4 4 3 3 2 2 2 2 2 2 2 2 2 2 2 2 2 3 3 3 2 2 2 2 2 2 2 2 2 2 2 1 1 1 1 1 1 1
3 4 4 4 4 3 3 3 3 2 1 1 2 2 2 2 2 2 2 2 2 2 2 3 3 3 3 2 2 2 2 2 2 2 2 2 1 1 1 1 1 1 1
4 4 4 4 4 4 3 3 3 2 2 1 1 2 2 2 2 2 2 1 1 2 2 2 2 3 3 3 3 2 2 2 3 3 2 2 1 1 1 1 1 1 1
3 3 3 4 4 4 4 3 3 3 2 1 1 1 2 2 2 1 1 1 1 2 2 2 2 2 3 3 3 2 2 2 3 3 3 2 2 2 1 1 1 1 1
2 2 2 3 4 4 4 3 3 3 2 2 1 1 2 2 1 1 1 1 2 2 2 2 2 2 2 3 3 2 2 2 2 2 3 3 2 2 2 2 2 1 1
2 2 2 2 3 3 3 3 3 3 3 2 2 2 2 2 2 1 1 1 1 2 2 2 2 2 2 2 2 2 2 2 1 2 2 2 2 2 2 2 1 1 1
1 1 2 2 2 2 3 4 4 3 3 2 2 2 2 2 2 2 2 1 2 2 2 2 2 2 2 2 2 1 1 1 1 1 1 1 1 1 1 1 1 1 1
1 1 2 2 2 2 3 4 3 3 3 2 2 2 2 3 3 3 2 2 2 2 2 2 3 3 3 2 2 1 1 1 0 0 0 0 1 1 1 1 1 1 1
1 1 1 2 2 2 3 3 3 2 2 2 2 2 2 3 3 3 3 3 3 2 2 2 3 4 4 3 2 1 1 1 0 0 0 0 0 0 0 1 1 1 1
2 1 1 1 2 2 2 2 2 2 2 2 2 2 2 3 3 4 4 4 4 4 3 3 4 6 5 3 2 2 1 1 0 0 0 0 0 0 0 0 0 0 0
1 1 1 1 1 1 1 2 1 1 2 2 1 1 2 2 3 3 4 5 5 5 4 4 6 8 6 4 2 2 2 1 0 0 0 0 0 0 0 0 0 0 0
1 1 1 1 1 1 1 1 1 1 1 1 1 1 1 2 2 3 3 4 4 4 4 4 5 6 6 3 3 2 1 1 0 0 0 0 0 0 0 0 0 0 0
1 1 1 1 1 1 1 1 1 1 1 1 1 1 1 1 2 2 2 3 3 3 3 4 3 4 4 3 3 2 2 1 1 0 0 0 0 0 0 0 0 0 0
1 1 1 1 1 1 1 1 1 1 1 1 1 1 1 1 1 2 2 2 2 2 3 3 3 3 4 3 2 2 2 2 1 0 0 0 0 0 0 0 0 0 0
1 1 1 1 1 1 1 1 1 1 1 1 1 1 1 1 1 1 1 1 1 1 2 2 2 2 3 3 2 2 2 2 1 1 0 0 0 0 0 0 0 0 0
1 1 1 1 1 1 0 0 1 1 1 1 1 1 1 1 0 0 0 1 1 1 1 1 1 2 2 2 2 2 2 2 1 1 1 1 0 0 0 0 0 0 0
1 1 1 1 1 0 0 0 0 1 1 1 1 1 1 0 0 0 0 0 0 0 0 1 1 1 2 2 2 2 2 1 1 1 1 1 0 0 0 0 0 0 0
1 1 1 1 1 0 0 0 0 0 1 1 1 1 1 1 1 0 0 0 0 0 0 0 1 1 1 1 1 2 2 1 1 1 1 1 0 0 0 0 0 0 0
1 1 1 1 1 1 0 0 0 0 0 0 1 1 1 1 1 0 0 0 1 1 0 0 1 1 1 1 1 1 1 1 1 1 1 1 0 0 0 0 0 0 0
1 1 1 1 1 1 0 0 0 0 0 0 0 0 1 1 1 0 0 0 1 1 1 0 0 0 1 0 0 1 1 1 1 1 1 1 0 0 0 0 0 0 0
Wind_Speed
3 3 2 2 2 3 5 6 5 7 7 8 7 8 8 9 7 5 6 15 15 16 17 18 17 16 16 15 16 16 16 16 15 15 14 14 13 13 12 12 12 11 11
1 2 2 3 3 3 3 4 6 5 5 5 7 7 7 7 6 5 5 10 16 17 17 17 18 18 17 17 17 16 17 17 16 16 16 15 15 14 14 13 13 12 12
2 2 3 3 4 4 4 4 5 5 5 7 8 8 6 6 5 6 6 7 9 14 16 17 17 17 18 18 18 17 17 17 16 16 16 16 16 15 14 14 14 13 13
3 3 3 4 4 4 4 5 5 5 5 6 6 5 6 5 8 7 6 6 6 8 13 18 18 17 18 18 19 18 18 18 17 17 17 17 17 16 15 15 15 14 14
5 4 3 3 3 4 4 6 5 4 5 6 6 6 6 6 7 8 7 7 7 7 7 14 18 18 18 19 19 19 18 18 18 18 18 18 18 17 17 16 15 15 15
4 3 3 4 4 3 4 4 4 4 4 5 7 6 6 7 6 6 7 7 8 9 9 10 11 13 18 18 17 18 18 18 17 18 18 18 18 18 17 17 16 16 16
3 3 3 3 3 4 4 5 4 5 5 4 4 4 5 6 6 6 6 6 8 9 8 8 9 7 8 16 16 17 17 18 17 17 17 17 17 17 16 17 17 16 16
2 3 2 2 3 3 3 3 3 3 4 4 3 3 3 3 4 8 6 6 7 6 7 9 8 8 7 7 11 16 17 17 17 17 16 16 16 16 16 16 16 16 16
2 2 3 2 2 3 3 3 3 4 4 3 4 3 2 3 3 4 6 6 5 4 5 5 8 8 6 5 7 14 16 15 16 16 16 16 15 15 16 16 17 16 16
2 2 2 2 2 2 3 3 2 3 4 3 3 3 3 1 1 1 3 4 5 5 4 5 6 7 7 5 6 10 15 14 13 13 14 14 15 15 15 16 17 17 16
3 3 2 2 2 2 2 3 3 3 3 3 2 2 3 3 3 2 3 3 3 4 4 4 3 5 6 5 5 8 14 13 12 11 11 12 13 13 14 15 16 16 17
3 3 3 1 1 2 3 3 3 4 3 3 2 2 2 3 3 3 3 4 4 4 5 4 4 4 5 5 7 11 13 12 11 10 9 9 10 11 12 13 15 15 16
3 2 2 2 2 2 3 3 3 3 3 3 3 2 3 3 3 3 2 3 4 3 3 3 4 4 5 5 7 12 11 11 10 8 8 7 8 8 9 10 12 13 14
5 4 3 3 3 3 4 2 3 3 3 3 4 3 3 3 3 3 2 2 2 2 3 3 3 4 4 7 9 10 8 10 10 8 7 6 5 5 6 6 7 7 8
6 5 4 4 4 4 4 4 3 3 3 3 3 3 2 3 3 4 3 1 2 2 3 3 3 4 5 6 10 6 7 9 9 8 7 7 6 5 5 4 4 4 5
7 7 7 6 6 6 6 5 4 4 4 3 3 3 2 3 3 3 3 2 2 2 2 2 2 3 5 8 8 7 8 11 9 9 8 7 6 6 5 4 3 3 3
7 7 7 7 7 7 7 6 6 6 6 5 4 4 4 4 3 3 2 2 2 2 2 1 1 3 5 6 6 7 8 7 6 8 8 8 7 6 5 4 3 2 2
7 8 7 8 9 9 8 8 8 8 7 7 6 6 5 4 4 3 3 3 2 2 2 3 2 2 4 6 6 6 7 7 6 9 9 8 7 7 6 5 3 2 2
8 8 8 8 9 8 8 8 9 8 8 8 7 7 6 6 5 4 4 3 2 3 1 2 2 2 2 4 6 5 6 6 7 8 9 8 8 7 6 5 4 3 2
9 9 9 8 8 9 9 9 9 9 8 8 7 7 7 7 7 6 5 4 3 3 2 2 3 3 3 4 5 5 5 5 5 7 6 7 8 8 7 6 5 5 4
11 9 9 9 9 9 10 9 8 10 9 9 8 7 8 9 9 7 6 5 5 4 3 3 4 3 4 5 5 5 6 5 4 5 6 5 5 4 4 5 6 6 5
10 9 10 10 10 11 10 7 6 7 6 7 8 8 9 9 10 11 10 8 7 6 5 4 4 4 5 5 5 6 6 7 5 5 5 4 4 4 4 4 5 7 7
10 9 10 10 10 10 10 9 9 7 7 6 6 7 10 11 11 9 10 11 10 9 7 4 4 4 4 4 6 7 7 7 5 7 6 4 4 5 5 5 8 8 8
9 9 10 10 9 10 11 11 10 8 7 7 7 8 9 7 8 8 9 9 9 9 9 7 5 4 4 2 3 4 5 5 5 5 6 5 4 5 6 5 7 9 9
10 10 9 9 9 9 10 11 11 7 7 8 9 9 9 9 10 10 8 8 8 7 11 12 10 9 8 7 5 3 5 7 6 5 4 5 6 6 4 4 5 9 9
10 10 9 9 9 8 9 12 12 7 7 7 7 8 11 11 11 12 8 7 7 7 7 8 8 8 7 8 10 7 6 7 6 5 5 5 7 6 5 3 4 4 6
Wind_Direction
233 262 281 279 245 219 202 212 218 225 225 228 232 219 215 222 233 219 173 181 185 190 189 191 196 202 206 206 205 204 203 202 201 200 200 203 204 202 199 199 197 194 192
266 265 270 272 268 261 245 216 223 224 227 231 234 233 229 230 232 230 179 186 196 197 195 196 199 204 207 208 207 207 206 204 203 202 202 203 205 204 203 203 202 201 198
279 271 262 258 258 258 258 249 239 232 226 230 231 229 227 233 236 237 213 183 194 202 203 202 202 204 208 210 210 209 207 205 204 204 204 205 205 205 204 205 205 204 202
288 268 255 250 256 259 252 245 241 235 233 229 227 225 225 225 234 231 221 197 192 203 208 209 206 205 208 210 212 211 209 207 206 205 205 205 206 206 206 207 206 205 204
294 275 258 256 258 258 252 251 235 232 239 236 229 221 220 222 221 227 223 213 204 203 198 207 208 207 209 211 212 212 211 209 207 206 206 206 208 207 206 207 207 207 206
300 301 276 266 263 260 260 255 248 237 237 233 240 233 218 219 208 214 218 219 211 206 204 199 197 209 211 211 210 212 211 209 207 207 208 208 210 209 206 208 209 209 208
312 306 290 283 268 258 256 249 239 242 242 231 232 243 236 226 213 210 210 216 212 206 207 190 183 192 202 212 210 209 210 210 208 208 208 210 211 209 207 209 210 210 210
310 296 305 302 282 265 262 265 245 247 248 227 214 223 224 225 230 218 200 207 216 200 198 193 183 183 191 184 205 207 208 209 209 208 208 210 212 212 210 211 212 212 212
271 297 304 303 305 292 269 264 250 233 248 240 218 215 218 213 203 213 208 200 194 193 194 187 180 177 186 177 184 202 206 206 209 210 210 211 212 213 213 213 213 213 213
266 264 282 292 296 295 297 282 273 251 243 243 233 228 248 280 212 180 224 193 181 189 201 194 181 168 181 182 175 180 196 199 203 209 211 211 212 213 214 214 215 215 215
244 237 238 263 301 302 302 305 306 286 254 244 243 231 240 250 236 204 208 185 179 185 193 190 163 170 177 173 164 171 179 187 194 202 209 212 211 213 214 215 218 220 219
247 227 221 200 272 297 309 301 296 292 287 271 261 258 249 245 232 220 199 190 190 198 189 175 168 164 162 162 166 158 166 174 182 192 199 204 207 213 215 217 221 223 222
281 252 249 202 229 245 270 282 285 283 287 289 280 264 267 274 268 250 218 217 200 179 165 163 167 168 167 137 135 147 154 159 166 173 180 189 201 209 212 213 219 223 224
290 280 262 239 237 239 251 258 278 279 263 261 269 275 277 276 289 284 254 244 225 175 162 188 172 166 142 131 141 146 146 155 159 163 168 171 176 185 191 200 209 216 221
285 292 300 272 255 250 249 246 245 259 265 251 251 259 262 273 282 293 294 265 225 206 198 191 166 148 132 120 148 144 139 147 148 150 153 153 153 150 154 169 191 206 213
279 277 271 268 257 248 241 234 240 241 238 237 237 243 251 266 275 281 283 286 263 224 221 192 176 150 143 140 156 136 128 136 136 142 141 139 137 135 138 139 149 180 200
274 268 265 264 258 250 243 234 231 234 231 232 236 230 224 238 257 274 290 287 274 242 226 225 140 141 127 130 136 132 140 141 132 134 132 130 128 127 128 128 136 158 191
282 276 267 262 256 252 240 235 235 236 227 224 225 226 224 225 227 239 253 263 272 268 211 216 183 150 147 145 147 153 153 143 131 132 130 127 124 123 122 121 122 132 165
285 278 273 268 264 260 250 240 234 232 229 225 221 219 218 215 219 218 226 239 242 253 219 216 215 170 157 159 154 160 136 129 131 135 131 124 121 120 117 112 109 109 114
289 282 274 269 266 264 258 249 239 231 230 227 221 219 218 212 210 209 217 221 224 229 221 218 222 195 178 169 160 154 147 148 144 146 130 126 124 115 108 102 98 95 96
288 286 281 274 267 262 256 252 244 240 232 227 223 220 223 218 210 206 217 206 210 213 212 208 218 205 192 176 179 169 163 152 140 141 137 138 139 126 110 96 87 86 94
291 288 281 274 267 265 262 255 255 255 243 231 225 224 226 220 210 206 211 202 198 210 211 208 217 210 211 197 185 180 164 159 157 155 146 145 144 121 104 85 83 91 95
291 289 282 274 266 260 254 243 241 247 251 244 233 226 233 225 204 202 204 206 209 213 205 198 218 217 215 206 185 186 179 173 160 156 147 137 126 106 94 86 91 94 96
286 280 276 273 268 262 249 233 228 233 243 245 240 232 227 237 225 204 200 204 209 211 207 208 216 224 236 219 194 191 184 155 128 146 146 131 129 113 100 92 91 96 99
287 280 274 267 262 258 242 226 218 229 231 235 236 234 225 221 223 212 203 204 210 215 215 215 208 212 220 219 194 167 175 162 154 160 155 131 135 122 113 107 102 102 103
287 284 278 270 262 254 238 221 213 226 229 232 234 236 231 221 212 206 207 204 210 214 217 207 210 216 215 213 201 190 186 177 160 159 170 141 147 141 130 125 133 130 112